FENGYUN 1C DEB

Satellite information

Favourite Embed

Satellite Type and Status

DEBRISIN ORBIT

Key statistics

Satellite FENGYUN 1C DEB at a glance.

Uptime

9555

Days in orbit

Revolutions

≈ 14.2

Per day

Orbit

SSO

Sun Synchronous Orbit

Inclination

99.1

Latest

Satellite identification and parameters

Extended collection of information and parameters for FENGYUN 1C DEB.

Object identification

Identified? True

Debris? True

Object name: FENGYUN 1C DEB

International designator: 1999-025BNE

Object number (NORAD): 31272

Object ID (CCSDS): 31272

Country: PEOPLES REPUBLIC OF CHINA (PRC)

Current information (Y/N): Y

RCS size: SMALL

Orbital parameters

Period: 101.233 minutes

Inclination: 99.1137 deg

SMA: 7195.194 km

Apoapsis: 893.378 km

Periapsis: 740.739 km

RAAN: 54.1253 deg

Eccentricy: 0.010607

Argument of periapsis: 207.9606 deg

Mean anomaly: 151.5847 deg

Mean motion: 14.22456664 rev/day

Mean motion (dot): 0.00000699 rev/day2

B* drag term: 0.00031614 1/REarth

Two-line elements (TLE)

Creation date: July 6, 2025, 6:05 p.m.

Reference frame: TEME

Reference center: EARTH

Epoch: July 6, 2025, 1:49 p.m. UTC

TLE line 0: 0 FENGYUN 1C DEB

TLE line 1: 1 31272U 99025BNE 25187.57609859 .00000699 00000-0 31614-3 0 9994

TLE line 2: 2 31272 99.1137 54.1253 0106070 207.9606 151.5847 14.22456664947260

Live tracking on map

Real-time ground track for satellite FENGYUN 1C DEB.

In-orbit conjunctions

A list of the most updated potential collisions computed for object FENGYUN 1C DEB.

Target Orbit TCA Probability of collision Miss distance Type
FENGYUN 1C DEB SSO 2025-06-14 21:47:35 0.0002950059 61.0 (m) DEBRIS
CZ-6A DEB SSO 2024-10-24 04:37:47 0.0002457848 59.0 (m) DEBRIS
DELTA 1 DEB SSO 2024-09-02 12:40:14 0.0005580825 57.0 (m) DEBRIS
COSMOS 1275 DEB LEO 2024-09-01 19:03:42 0.0001238599 164.0 (m) DEBRIS

Associated space launch

Chinese polar orbiting meteorological satellite

FENGYUN 1C DEB was lifted into orbit during the mission ‘Long March 4B | Feng Yun 1C’, on board a Long March 4B space rocket.

The launch took place on May 10, 1999, 1:33 a.m. from Launch Complex 7.

For more information about the launch, click the button.

Launch to space Long March 4B | Feng Yun 1C
Long March 4B | Feng Yun 1C

Agency: N/A

Status: Launch Successful

Launch date: May 10, 1999, 1:33 a.m. UTC

Rocket: Long March 4B

Launch pad: Launch Complex 7

Location: Taiyuan Satellite Launch Center, People's Republic of China

...

Latest news about this satellite

There are no fresh news available about this satellite. Check back as we update our databases every day.


Newsletter sign-up

Weekly statistics, charts and insights to help you stay on top of the space industry.